Location: Badlands Tank
(34.7185°N, 107.0376°W)
Time: 18:15:39
(UTC+00:00)

USA 40 PKM - Visible Passes

Search period start: 13 November 2025 00:00
Search period end: 23 November 2025 00:00
Orbit: 482 x 8083 km, 57.0° (Epoch: 12 November)

Date Brightness Start Highest point End Pass type
(mag) Time Alt. Az. Time Alt. Az. Time Alt. Az.
13 Nov 10.8 10:24:42 10° SSE 11:08:14 41° E 11:44:26 10° NE visible
14 Nov 10.6 10:43:26 10° SSE 11:29:43 49° ESE 12:07:34 10° NE visible
15 Nov 10.5 11:03:08 10° S 11:51:34 58° ESE 12:30:19 10° NE visible
16 Nov 11.1 08:42:32 10° ESE 09:04:37 15° E 09:24:37 10° ENE visible
16 Nov 10.3 11:23:33 10° S 12:13:49 68° ESE 12:52:49 10° NE visible
17 Nov 10.9 08:52:45 10° SE 09:24:41 22° E 09:52:55 10° NE visible
17 Nov 10.2 11:44:36 10° SSW 12:36:27 77° ESE 13:15:09 10° NE visible
18 Nov 10.8 09:07:23 10° SE 09:45:07 30° E 10:18:17 10° NE visible
18 Nov 10.1 12:06:16 10° SSW 12:59:30 87° ESE 13:37:21 10° NE visible
19 Nov 10.7 09:24:18 10° SSE 10:05:56 38° E 10:42:22 10° NE visible
19 Nov 10.0 12:28:32 10° SSW 13:22:57 84° NW 13:59:30 10° NE visible
20 Nov 10.5 09:42:39 10° SSE 10:27:08 46° ESE 11:05:43 10° NE visible
20 Nov 9.9 12:51:25 10° SW 13:46:48 76° NW 14:21:38 10° NE visible
21 Nov 10.4 10:02:02 10° S 10:48:43 55° ESE 11:28:38 10° NE visible
21 Nov 9.9 13:15:01 10° SW 14:11:04 68° NW 14:43:45 10° NE visible
22 Nov 11.0 07:47:02 10° ESE 08:03:09 13° E 08:18:18 10° ENE visible
22 Nov 10.2 10:22:10 10° S 11:10:42 64° ESE 11:51:15 10° NE visible
